Weather History for Palm Springs, CA

Change the Weather History Date:

Sunday, August 4, 2013

  Actual Average Record
Temperature  
Mean Temperature 92 °F 93 °F  
Max Temperature 109 °F 107 °F 121 °F (1969)
Min Temperature 75 °F 78 °F 55 °F (1933)
Degree Days  
Heating Degree Days 0 0  
Month to date heating degree days 0 0  
Since 1 June heating degree days 0 0  
Since 1 July heating degree days 0 0  
Cooling Degree Days 27 28  
Month to date cooling degree days 100 112  
Year to date cooling degree days 2777 2364  
Since 1 June cooling degree days 1735 1605  
Growing Degree Days 42 (Base 50)    
Moisture  
Dew Point 47 °F    
Average Humidity 31    
Maximum Humidity 54    
Minimum Humidity 7    
Precipitation  
Precipitation 0.00 in 0.01 in 0.50 in (1992)
Month to date precipitation 0.00 0.04  
Year to date precipitation 1.91 3.23  
Since 1 July precipitation 0.94 0.29  
Snow  
Snow 0.00 in - - ()
Month to date snowfall 0.0  
Year to date snowfall 0.0  
Since 1 July snowfall 0.0  
Snow Depth 0.00 in    
Sea Level Pressure  
Sea Level Pressure 29.82 in    
Wind  
Wind Speed 3 mph (NW)    
Max Wind Speed 18 mph    
Max Gust Speed 23 mph    
Visibility 10 miles    
Events      
T = Trace of Precipitation, MM = Missing Value Source: NWS Daily Summary

Daily Weather History Graph

Daily Weather History Graph

Search for Another Location

Airport:

Trip Planner

Search our weather history database for the weather conditions in past years. The results will help you decide how hot, cold, wet, or windy it might be!

Date:

Astronomy

Aug. 04, 2013 Rise Set
Actual Time 6:00 AM PDT 7:43 PM PDT
Civil Twilight 5:33 AM PDT 8:10 PM PDT
Nautical Twilight 5:00 AM PDT 8:43 PM PDT
Astronomical Twilight 4:25 AM PDT 9:17 PM PDT
Moon 4:05 AM PDT (8/4) 6:09 PM PDT (8/4)
Length of Visible Light 14h 37m
Length of Day
13h 43m
Waning Crescent, 4% of the Moon is Illuminated
Aug 4
Waning Crescent
Aug 6
New
Aug 14
First Quarter
Aug 20
Full
Aug 28
Last Quarter

Hourly Weather History & Observations

Time (PDT) Temp. Heat Index Dew Point Humidity Pressure Visibility Wind Dir Wind Speed Gust Speed Precip Events Conditions
12:53 AM 82.0 °F 81.3 °F 54.0 °F 38% 29.82 in 10.0 mi SE 3.5 mph - N/A   Clear
1:53 AM 82.0 °F 81.4 °F 55.0 °F 39% 29.81 in 10.0 mi NW 3.5 mph - N/A   Clear
2:53 AM 79.0 °F - 55.9 °F 45% 29.81 in 10.0 mi SSW 3.5 mph - N/A   Clear
3:53 AM 75.9 °F - 57.0 °F 52% 29.81 in 10.0 mi Calm Calm - N/A   Clear
4:53 AM 77.0 °F - 55.9 °F 48% 29.81 in 10.0 mi Calm Calm - N/A   Clear
5:53 AM 75.9 °F - 55.9 °F 50% 29.83 in 10.0 mi Calm Calm - N/A   Clear
6:53 AM 75.9 °F - 57.9 °F 54% 29.86 in 10.0 mi Calm Calm - N/A   Clear
7:53 AM 80.1 °F 80.0 °F 54.0 °F 40% 29.87 in 10.0 mi Calm Calm - N/A   Clear
8:53 AM 87.1 °F - 51.1 °F 29% 29.88 in 10.0 mi Calm Calm - N/A   Clear
9:53 AM 91.0 °F - 46.0 °F 21% 29.88 in 10.0 mi ESE 3.5 mph - N/A   Partly Cloudy
10:53 AM 95.0 °F - 46.0 °F 19% 29.87 in 10.0 mi Calm Calm - N/A   Clear
11:53 AM 99.0 °F - 39.9 °F 13% 29.86 in 10.0 mi South 5.8 mph - N/A   Partly Cloudy
12:53 PM 102.0 °F - 37.0 °F 11% 29.85 in 10.0 mi ESE 3.5 mph - N/A   Clear
1:53 PM 102.9 °F - 34.0 °F 9% 29.83 in 10.0 mi Calm Calm - N/A   Partly Cloudy
2:53 PM 107.1 °F - 30.9 °F 7% 29.81 in 10.0 mi East 5.8 mph - N/A   Clear
3:53 PM 107.1 °F - 35.1 °F 8% 29.78 in 10.0 mi NW 8.1 mph - N/A   Partly Cloudy
4:53 PM 108.0 °F - 34.0 °F 8% 29.77 in 10.0 mi NW 16.1 mph 23.0 mph N/A   Clear
5:53 PM 106.0 °F - 39.0 °F 10% 29.75 in 10.0 mi NW 13.8 mph - N/A   Clear
6:53 PM 100.9 °F - 46.9 °F 16% 29.75 in 10.0 mi NW 18.4 mph 24.2 mph N/A   Partly Cloudy
7:53 PM 96.1 °F - 48.9 °F 20% 29.77 in 10.0 mi NW 20.7 mph 29.9 mph N/A   Partly Cloudy
8:53 PM 93.9 °F - 48.0 °F 21% 29.79 in 10.0 mi NW 17.3 mph 26.5 mph N/A   Clear
9:53 PM 93.0 °F - 46.9 °F 20% 29.81 in 10.0 mi NW 11.5 mph 21.9 mph N/A   Clear
10:53 PM 90.0 °F - 46.9 °F 23% 29.81 in 10.0 mi WNW 8.1 mph - N/A   Clear
11:53 PM 89.1 °F - 46.0 °F 22% 29.82 in 10.0 mi Calm Calm - N/A   Clear